DW0929 Weather Reports


Display with metric or nautical units.
time (UTC)temp
F
wind
direction
speed
MPH
gust
MPH
rain 1hr
in
rain 24hr
in
rain mn
in
humidity
%
barometer
mb
20260510203035 70 0.0 0.0 0.00 0.00 0.00 60 1009.9
20260510202535 70 0.0 0.0 0.00 0.00 0.00 61 1009.8
20260510202035 71 0.0 0.0 0.00 0.00 0.00 61 1009.7
20260510201036 71 0.0 0.0 0.00 0.00 0.00 61 1009.7
20260510200537 71 0.0 0.0 0.00 0.00 0.00 63 1009.8
20260510200105 71 0.0 0.0 0.00 0.00 0.00 63 1009.8
20260510195534 71 0.0 0.0 0.00 0.00 0.00 64 1009.9
20260510195034 70 0.0 0.0 0.00 0.00 0.00 65 1010.0
20260510194545 70 0.0 0.0 0.00 0.00 0.00 63 1010.1
20260510194035 70 0.0 0.0 0.00 0.00 0.00 63 1010.1
20260510193534 70 0.0 0.0 0.00 0.00 0.00 64 1010.1
20260510193042 70 0.0 0.0 0.00 0.00 0.00 63 1010.2
20260510192533 69 0.0 0.0 0.00 0.00 0.00 63 1010.2
20260510192033 70 0.0 0.0 0.00 0.00 0.00 62 1010.1
20260510191033 70 0.0 0.0 0.00 0.00 0.00 62 1010.2
20260510190532 70 0.0 0.0 0.00 0.00 0.00 61 1010.3
20260510190032 71 0.0 0.0 0.00 0.00 0.00 60 1010.3
20260510185532 71 0.0 0.0 0.00 0.00 0.00 60 1010.4
20260510185033 71 0.0 0.0 0.00 0.00 0.00 61 1010.4
20260510184530 71 0.0 0.0 0.00 0.00 0.00 63 1010.4
20260510184031 71 0.0 0.0 0.00 0.00 0.00 66 1010.4
20260510183529 70 0.0 0.0 0.00 0.00 0.00 66 1010.3
20260510183041 70 0.0 0.0 0.00 0.00 0.00 68 1010.3
20260510182530 69 0.0 0.0 0.00 0.00 0.00 66 1010.3
20260510182030 69 0.0 0.0 0.00 0.00 0.00 65 1010.4
20260510181032 69 0.0 0.0 0.00 0.00 0.00 65 1010.4
20260510180528 69 0.0 0.0 0.00 0.00 0.00 64 1010.5
20260510180027 69 0.0 0.0 0.00 0.00 0.00 65 1010.4
20260510175527 69 0.0 0.0 0.00 0.00 0.00 66 1010.6
20260510175027 69 0.0 0.0 0.00 0.00 0.00 66 1010.6
20260510174526 69 0.0 0.0 0.00 0.00 0.00 65 1010.6
20260510174027 69 0.0 0.0 0.00 0.00 0.00 64 1010.6
20260510173526 69 0.0 0.0 0.00 0.00 0.00 67 1010.6
20260510173026 69 0.0 0.0 0.00 0.00 0.00 68 1010.7
20260510172524 69 0.0 0.0 0.00 0.00 0.00 68 1010.8
20260510172023 68 0.0 0.0 0.00 0.00 0.00 69 1010.9
20260510171022 68 0.0 0.0 0.00 0.00 0.00 68 1011.0
20260510170520 68 0.0 0.0 0.00 0.00 0.00 68 1011.1
20260510170020 68 0.0 0.0 0.00 0.00 0.00 68 1011.2
20260510165519 68 0.0 0.0 0.00 0.00 0.00 70 1011.3
20260510165018 67 0.0 0.0 0.00 0.00 0.00 72 1011.4
20260510164517 67 0.0 0.0 0.00 0.00 0.00 73 1011.4
20260510164015 66 0.0 0.0 0.00 0.00 0.00 70 1011.4
20260510163515 66 0.0 0.0 0.00 0.00 0.00 69 1011.6
20260510163015 66 0.0 0.0 0.00 0.00 0.00 69 1011.6
20260510162517 66 0.0 0.0 0.00 0.00 0.00 71 1011.6
20260510162013 65 0.0 0.0 0.00 0.00 0.00 71 1011.5
20260510161014 65 0.0 0.0 0.00 0.00 0.00 70 1011.7
20260510160513 65 0.0 0.0 0.00 0.00 0.00 71 1011.7
20260510160016 65 0.0 0.0 0.00 0.00 0.00 72 1011.7
20260510155612 65 0.0 0.0 0.00 0.00 0.00 70 1011.7
20260510155012 65 0.0 0.0 0.00 0.00 0.00 70 1011.8
20260510154512 65 0.0 0.0 0.00 0.00 0.00 70 1011.9
20260510154011 65 0.0 0.0 0.00 0.00 0.00 72 1011.9
20260510153509 65 0.0 0.0 0.00 0.00 0.00 73 1011.9
20260510153009 64 0.0 0.0 0.00 0.00 0.00 73 1011.9
20260510152507 64 0.0 0.0 0.00 0.00 0.00 74 1011.9
20260510152006 63 0.0 0.0 0.00 0.00 0.00 73 1011.9
20260510151007 63 0.0 0.0 0.00 0.00 0.00 74 1011.9
20260510150506 63 0.0 0.0 0.00 0.00 0.00 76 1011.9
20260510150005 62 0.0 0.0 0.00 0.00 0.00 77 1011.9
20260510145506 62 0.0 0.0 0.00 0.00 0.00 78 1011.8
20260510145001 61 0.0 0.0 0.00 0.00 0.00 79 1011.8
20260510144602 61 0.0 0.0 0.00 0.00 0.00 79 1011.9
20260510144059 60 0.0 0.0 0.00 0.00 0.00 78 1011.9
20260510143559 59 0.0 0.0 0.00 0.00 0.00 77 1012.0
20260510143059 59 0.0 0.0 0.00 0.00 0.00 78 1012.0
20260510142600 59 0.0 0.0 0.00 0.00 0.00 78 1012.0
20260510142100 58 0.0 0.0 0.00 0.00 0.00 80 1012.0
20260510141057 58 0.0 0.0 0.00 0.00 0.00 80 1011.9
20260510140556 58 0.0 0.0 0.00 0.00 0.00 80 1011.9
20260510140056 57 0.0 0.0 0.00 0.00 0.00 80 1011.9
20260510135555 57 0.0 0.0 0.00 0.00 0.00 80 1011.9
20260510135054 57 0.0 0.0 0.00 0.00 0.00 81 1011.9
20260510134604 57 0.0 0.0 0.00 0.00 0.00 82 1012.0
20260510134056 57 0.0 0.0 0.00 0.00 0.00 82 1011.8
20260510133552 57 0.0 0.0 0.00 0.00 0.00 82 1012.0
20260510133107 56 0.0 0.0 0.00 0.00 0.00 82 1012.1
20260510132550 56 0.0 0.0 0.00 0.00 0.00 83 1012.0
20260510132052 56 0.0 0.0 0.00 0.00 0.00 83 1012.0
20260510131052 56 0.0 0.0 0.00 0.00 0.00 84 1012.0
20260510130554 56 0.0 0.0 0.00 0.00 0.00 84 1011.9
20260510130051 56 0.0 0.0 0.00 0.00 0.00 84 1011.8
20260510125549 56 0.0 0.0 0.00 0.00 0.00 85 1011.8
20260510125049 55 0.0 0.0 0.00 0.00 0.00 85 1011.8
20260510124548 55 0.0 0.0 0.00 0.00 0.00 85 1011.8
20260510124048 55 0.0 0.0 0.00 0.00 0.00 85 1011.6
20260510123549 55 0.0 0.0 0.00 0.00 0.00 85 1011.7
20260510123058 55 0.0 0.0 0.00 0.00 0.00 85 1011.7
20260510122547 55 0.0 0.0 0.00 0.00 0.00 85 1011.8
20260510122046 55 0.0 0.0 0.00 0.00 0.00 85 1011.7
20260510121055 55 0.0 0.0 0.00 0.00 0.00 85 1011.8
20260510120555 54 0.0 0.0 0.00 0.00 0.00 86 1011.7
20260510120055 54 0.0 0.0 0.00 0.00 0.00 85 1011.7
20260510115558 54 0.0 0.0 0.00 0.00 0.00 86 1011.7
20260510115053 54 0.0 0.0 0.00 0.00 0.00 86 1011.7
20260510114552 54 0.0 0.0 0.00 0.00 0.00 86 1011.5
20260510114051 53 0.0 0.0 0.00 0.00 0.00 85 1011.5
20260510113551 53 0.0 0.0 0.00 0.00 0.00 85 1011.6
20260510113051 53 0.0 0.0 0.00 0.00 0.00 86 1011.6
20260510112550 53 0.0 0.0 0.00 0.00 0.00 85 1011.5
20260510112050 53 0.0 0.0 0.00 0.00 0.00 85 1011.5
20260510111041 53 0.0 0.0 0.00 0.00 0.00 85 1011.4
20260510110541 53 0.0 0.0 0.00 0.00 0.00 85 1011.3
20260510110044 53 0.0 0.0 0.00 0.00 0.00 85 1011.2
20260510105541 52 0.0 0.0 0.00 0.00 0.00 85 1011.2
20260510105040 52 0.0 0.0 0.00 0.00 0.00 85 1011.1
20260510104540 52 0.0 0.0 0.00 0.00 0.00 85 1011.2
20260510104038 52 0.0 0.0 0.00 0.00 0.00 85 1011.2
20260510103538 52 0.0 0.0 0.00 0.00 0.00 85 1011.0
20260510103041 52 0.0 0.0 0.00 0.00 0.00 85 1011.0
20260510102538 52 0.0 0.0 0.00 0.00 0.00 85 1010.9
20260510102037 52 0.0 0.0 0.00 0.00 0.00 85 1010.9
20260510101042 52 0.0 0.0 0.00 0.00 0.00 85 1010.5
20260510100546 52 0.0 0.0 0.00 0.00 0.00 85 1010.3
20260510100042 52 0.0 0.0 0.00 0.00 0.00 85 1010.6
20260510095542 52 0.0 0.0 0.00 0.00 0.00 85 1010.8
20260510095042 52 0.0 0.0 0.00 0.00 0.00 85 1010.6
20260510094543 52 0.0 0.0 0.00 0.00 0.00 85 1010.8
20260510094041 52 0.0 0.0 0.00 0.00 0.00 85 1010.8
20260510093541 52 0.0 0.0 0.00 0.00 0.00 85 1010.7
20260510093041 52 0.0 0.0 0.00 0.00 0.00 85 1010.8
20260510092541 52 0.0 0.0 0.00 0.00 0.00 85 1010.8
20260510092041 52 0.0 0.0 0.00 0.00 0.00 85 1010.8
20260510091040 52 0.0 0.0 0.00 0.00 0.00 85 1010.7
20260510090540 52 0.0 0.0 0.00 0.00 0.00 85 1010.8
20260510090040 52 0.0 0.0 0.00 0.00 0.00 85 1010.9
20260510085543 52 0.0 0.0 0.00 0.00 0.00 85 1011.0
20260510085039 52 0.0 0.0 0.00 0.00 0.00 85 1011.0
20260510084539 52 0.0 0.0 0.00 0.00 0.00 85 1011.0
20260510084038 52 0.0 0.0 0.00 0.00 0.00 85 1011.0
20260510083538 52 0.0 0.0 0.00 0.00 0.00 85 1011.0
20260510083038 52 0.0 0.0 0.00 0.00 0.00 85 1010.7
20260510082537 53 0.0 0.0 0.00 0.00 0.00 85 1010.7
20260510082037 53 0.0 0.0 0.00 0.00 0.00 85 1010.9
20260510081033 53 0.0 0.0 0.00 0.00 0.00 85 1010.9
20260510080532 52 0.0 0.0 0.00 0.00 0.00 85 1010.8
20260510080031 53 0.0 0.0 0.00 0.00 0.00 85 1010.7
20260510075531 52 0.0 0.0 0.00 0.00 0.00 85 1010.7
20260510075032 52 0.0 0.0 0.00 0.00 0.00 85 1010.5
20260510074532 53 0.0 0.0 0.00 0.00 0.00 85 1010.5
20260510074034 52 0.0 0.0 0.00 0.00 0.00 85 1010.6
20260510073532 52 0.0 0.0 0.00 0.00 0.00 85 1010.5
20260510073034 52 0.0 0.0 0.00 0.00 0.00 85 1010.5
20260510072530 52 0.0 0.0 0.00 0.00 0.00 85 1010.3
20260510072031 53 0.0 0.0 0.00 0.00 0.00 85 1010.4
20260510071031 53 0.0 0.0 0.00 0.00 0.00 85 1010.5
20260510070531 53 0.0 0.0 0.00 0.00 0.00 85 1010.5
20260510070031 53 0.0 0.0 0.00 0.00 0.00 85 1010.5
20260510065530 52 0.0 0.0 0.00 0.00 0.00 85 1010.7
20260510065030 52 0.0 0.0 0.00 0.00 0.00 85 1010.7
20260510064537 52 0.0 0.0 0.00 0.00 0.00 85 1010.6
20260510064029 52 0.0 0.0 0.00 0.00 0.00 85 1010.6
20260510063530 52 0.0 0.0 0.00 0.00 0.00 85 1010.6
20260510063036 52 0.0 0.0 0.00 0.00 0.00 85 1010.5
20260510062529 52 0.0 0.0 0.00 0.00 0.00 85 1010.3
20260510062029 52 0.0 0.0 0.00 0.00 0.00 85 1010.4
20260510061036 52 0.0 0.0 0.00 0.00 0.00 85 1010.1
20260510060534 52 0.0 0.0 0.00 0.00 0.00 85 1010.0
20260510060033 52 0.0 0.0 0.00 0.00 0.00 85 1010.0
20260510055532 52 0.0 0.0 0.00 0.00 0.00 85 1010.0
20260510055031 52 0.0 0.0 0.00 0.00 0.00 85 1010.1
20260510054531 52 0.0 0.0 0.00 0.00 0.00 85 1010.2
20260510054030 53 0.0 0.0 0.00 0.00 0.00 85 1010.2
20260510053529 53 0.0 0.0 0.00 0.00 0.00 85 1010.3
20260510053029 53 0.0 0.0 0.00 0.00 0.00 85 1010.4
20260510052530 53 0.0 0.0 0.00 0.00 0.00 84 1010.6
20260510052028 53 0.0 0.0 0.00 0.00 0.00 85 1010.7
20260510051025 53 0.0 0.0 0.00 0.00 0.00 85 1010.6
20260510050528 53 0.0 0.0 0.00 0.00 0.00 85 1010.6
20260510050026 53 0.0 0.0 0.00 0.00 0.00 85 1010.6
20260510045525 53 0.0 0.0 0.00 0.00 0.00 85 1010.5
20260510045025 53 0.0 0.0 0.00 0.00 0.00 85 1010.4
20260510044525 53 0.0 0.0 0.00 0.00 0.00 85 1010.5
20260510044024 53 0.0 0.0 0.00 0.00 0.00 85 1010.4
20260510043523 53 0.0 0.0 0.00 0.00 0.00 85 1010.4
20260510043022 53 0.0 0.0 0.00 0.00 0.00 84 1010.5
20260510042521 53 0.0 0.0 0.00 0.00 0.00 84 1010.6
20260510042021 53 0.0 0.0 0.00 0.00 0.00 84 1010.7
20260510041025 53 0.0 0.0 0.00 0.00 0.00 84 1010.5
20260510040522 53 0.0 0.0 0.00 0.00 0.00 84 1010.6
20260510040027 53 0.0 0.0 0.00 0.00 0.00 84 1010.6
20260510035523 53 0.0 0.0 0.00 0.00 0.00 84 1010.6
20260510035020 53 0.0 0.0 0.00 0.00 0.00 85 1010.5
20260510034529 53 0.0 0.0 0.00 0.00 0.00 85 1010.6
20260510034020 53 0.0 0.0 0.00 0.00 0.00 85 1010.5
20260510033519 53 0.0 0.0 0.00 0.00 0.00 85 1010.5
20260510033020 53 0.0 0.0 0.00 0.00 0.00 85 1010.5
20260510032523 53 0.0 0.0 0.00 0.00 0.00 85 1010.4
20260510032020 53 0.0 0.0 0.00 0.00 0.00 85 1010.4
20260510031021 53 0.0 0.0 0.00 0.00 0.00 85 1010.4
20260510030520 53 0.0 0.0 0.00 0.00 0.00 85 1010.3
20260510030021 53 0.0 0.0 0.00 0.00 0.00 85 1010.1
20260510025521 54 0.0 0.0 0.00 0.00 0.00 85 1010.1
20260510025021 54 0.0 0.0 0.00 0.00 0.00 85 1010.2
20260510024521 54 0.0 0.0 0.00 0.00 0.00 84 1010.3
20260510024020 54 0.0 0.0 0.00 0.00 0.00 84 1010.3
20260510023520 54 0.0 0.0 0.00 0.00 0.00 84 1010.2
20260510023020 54 0.0 0.0 0.00 0.00 0.00 84 1010.4
20260510022520 54 0.0 0.0 0.00 0.00 0.00 84 1010.6
20260510022020 54 0.0 0.0 0.00 0.00 0.00 84 1010.6
20260510021021 54 0.0 0.0 0.00 0.00 0.00 84 1010.7
20260510020519 54 0.0 0.0 0.00 0.00 0.00 84 1010.7
20260510020020 54 0.0 0.0 0.00 0.00 0.00 84 1010.7
20260510015519 54 0.0 0.0 0.00 0.00 0.00 84 1010.8
20260510015024 54 0.0 0.0 0.00 0.00 0.00 84 1010.8
20260510014519 54 0.0 0.0 0.00 0.00 0.00 84 1010.6
20260510014023 54 0.0 0.0 0.00 0.00 0.00 84 1010.6
20260510013519 54 0.0 0.0 0.00 0.00 0.00 84 1010.5
20260510013019 54 0.0 0.0 0.00 0.00 0.00 84 1010.5
20260510012519 54 0.0 0.0 0.00 0.00 0.00 84 1010.4
20260510012018 54 0.0 0.0 0.00 0.00 0.00 85 1010.4
20260510011019 53 0.0 0.0 0.00 0.00 0.00 84 1010.4
20260510010518 53 0.0 0.0 0.00 0.00 0.00 84 1010.2
20260510010019 53 0.0 0.0 0.00 0.00 0.00 84 1010.3
20260510005519 53 0.0 0.0 0.00 0.00 0.00 84 1010.3
20260510005018 53 0.0 0.0 0.00 0.00 0.00 84 1010.3
20260510004519 53 0.0 0.0 0.00 0.00 0.00 84 1010.3
20260510004023 53 0.0 0.0 0.00 0.00 0.00 84 1010.2
20260510003518 53 0.0 0.0 0.00 0.00 0.00 84 1010.0
20260510003020 53 0.0 0.0 0.00 0.00 0.00 84 1010.0
20260510002518 53 0.0 0.0 0.00 0.00 0.00 84 1010.0
20260510002017 53 0.0 0.0 0.00 0.00 0.00 84 1010.0
20260510001021 53 0.0 0.0 0.00 0.00 0.00 84 1010.0
20260510000517 53 0.0 0.0 0.00 0.00 0.00 84 1010.2
20260510000020 53 0.0 0.0 0.00 0.00 0.00 84 1010.2
20260509235517 53 0.0 0.0 0.00 0.00 0.00 84 1010.2
20260509235018 53 0.0 0.0 0.00 0.00 0.00 84 1010.1
20260509234519 53 0.0 0.0 0.00 0.00 0.00 84 1010.2
20260509234017 53 0.0 0.0 0.00 0.00 0.00 84 1010.2
20260509233516 53 0.0 0.0 0.00 0.00 0.00 84 1010.2
20260509233016 53 0.0 0.0 0.00 0.00 0.00 84 1010.2
20260509232517 53 0.0 0.0 0.00 0.00 0.00 84 1010.2
20260509232016 53 0.0 0.0 0.00 0.00 0.00 84 1010.2
20260509231020 53 0.0 0.0 0.00 0.00 0.00 84 1010.2
20260509230520 53 0.0 0.0 0.00 0.00 0.00 84 1010.1
20260509230020 53 0.0 0.0 0.00 0.00 0.00 84 1010.1
20260509225519 54 0.0 0.0 0.00 0.00 0.00 84 1010.1
20260509225023 54 0.0 0.0 0.00 0.00 0.00 84 1010.1
20260509224519 54 0.0 0.0 0.00 0.00 0.00 84 1010.3
20260509224019 54 0.0 0.0 0.00 0.00 0.00 83 1010.4
20260509223519 54 0.0 0.0 0.00 0.00 0.00 83 1010.5
20260509223022 54 0.0 0.0 0.00 0.00 0.00 83 1010.5
20260509222522 53 0.0 0.0 0.00 0.00 0.00 83 1010.5
20260509222018 53 0.0 0.0 0.00 0.00 0.00 83 1010.4
20260509221014 53 0.0 0.0 0.00 0.00 0.00 83 1010.4
20260509220513 53 0.0 0.0 0.00 0.00 0.00 83 1010.2
20260509220013 53 0.0 0.0 0.00 0.00 0.00 83 1010.3
20260509215513 53 0.0 0.0 0.00 0.00 0.00 83 1010.3
20260509215013 53 0.0 0.0 0.00 0.00 0.00 83 1010.3
20260509214512 53 0.0 0.0 0.00 0.00 0.00 83 1010.3
20260509214011 53 0.0 0.0 0.00 0.00 0.00 83 1010.5
20260509213512 53 0.0 0.0 0.00 0.00 0.00 82 1010.5
20260509213013 53 0.0 0.0 0.00 0.00 0.00 82 1010.6
20260509212511 53 0.0 0.0 0.00 0.00 0.00 82 1010.6
20260509212011 53 0.0 0.0 0.00 0.00 0.00 82 1010.7
20260509211012 53 0.0 0.0 0.00 0.00 0.00 82 1010.6
20260509210512 53 0.0 0.0 0.00 0.00 0.00 82 1010.6
20260509210012 53 0.0 0.0 0.00 0.00 0.00 82 1010.5
20260509205511 53 0.0 0.0 0.00 0.00 0.00 82 1010.6
20260509205011 53 0.0 0.0 0.00 0.00 0.00 82 1010.8
20260509204511 53 0.0 0.0 0.00 0.00 0.00 82 1010.8
20260509204011 53 0.0 0.0 0.00 0.00 0.00 81 1010.9
20260509203510 53 0.0 0.0 0.00 0.00 0.00 81 1011.0